Location: Nairn
(57.5833°N, 3.8667°W)
Time: 02:32:42
(UTC+00:00)

Transit 2A - Pass Details

Date: 27 November 2020
Orbit: 598 x 960 km, 66.7° (Epoch: 20 January)

Event Time Altitude Azimuth Distance (km) Brightness Sun altitude
Rises 16:35:00 0° 157° (SSE) 3,623 9.6 -6.8°
Reaches altitude 10° 16:38:50 10° 135° (SE) 2,654 8.6 -7.3°
Maximum altitude 16:41:58 14° 105° (ESE) 2,314 8.1 -7.6°
Drops below altitude 10° 16:45:01 10° 74° (ENE) 2,580 8.1 -8.0°
Enters shadow 16:45:19 - 71° (ENE) 2,633 8.1 -8.0°
